カタログに戻る

STARLINK-31460

運用中通信VLEO
NORAD 59008·PAYLOAD·🇺🇸 United States

打ち上げ Feb 23, 2024 から Vandenberg Space Force Base

Loading…

次のパス (今後24時間)

TLE

最新Source: CelesTrak SupGP

元期: Sep 14, 2026, 22:31 UTC

1 59008C 24036L   26257.93868056  .00053443  00000+0  15792-2 0  2575
2 59008  53.1560 277.4440 0001321  97.5543 180.4686 15.34359411    12

AllMySatでSTARLINK-31460をリアルタイム追跡

Download on the App Store